Location: Newark
(25.4800°N, 85.7200°E)
Time: 19:22:21
(UTC+00:00)

Vanguard 1 Rocket - Pass Details

Date: 26 August 2019
Orbit: 650 x 4226 km, 34.3° (Epoch: 17 October)

Event Time Altitude Azimuth Distance (km) Brightness Sun altitude
Rises 03:13:05 0° 276° (W) 4,476 10.5 43.6°
Reaches altitude 10° 03:16:05 10° 265° (W) 3,885 10.3 44.2°
Maximum altitude 03:24:58 29° 209° (SSW) 3,658 10.6 46.2°
Drops below altitude 10° 03:39:40 10° 158° (SSE) 6,450 12.2 49.4°
Sets 03:46:53 0° 149° (SSE) 7,970 12.6 51.0°
